Year,Month,Day,Hour,Minute,Value (Times are PST for temperature in C)
2016,08,13,00,00,18.40
2016,08,13,00,01,18.40
2016,08,13,00,02,18.30
2016,08,13,00,03,18.30
2016,08,13,00,04,18.30
2016,08,13,00,05,18.30
2016,08,13,00,06,18.20
2016,08,13,00,07,18.20
2016,08,13,00,08,18.20
2016,08,13,00,09,18.20
2016,08,13,00,10,18.20
2016,08,13,00,11,18.10
2016,08,13,00,12,18.10
2016,08,13,00,13,18.10
2016,08,13,00,14,18.10
2016,08,13,00,15,18.00
2016,08,13,00,16,18.00
2016,08,13,00,17,17.90
2016,08,13,00,18,17.90
2016,08,13,00,19,17.90
2016,08,13,00,20,17.90
2016,08,13,00,21,17.90
2016,08,13,00,22,17.80
2016,08,13,00,23,17.80
2016,08,13,00,24,17.80
2016,08,13,00,25,17.80
2016,08,13,00,26,17.80
2016,08,13,00,27,17.80
2016,08,13,00,28,17.80
2016,08,13,00,29,17.70
2016,08,13,00,30,17.70
2016,08,13,00,31,17.70
2016,08,13,00,32,17.70
2016,08,13,00,33,17.70
2016,08,13,00,34,17.70
2016,08,13,00,35,17.70
2016,08,13,00,36,17.70
2016,08,13,00,37,17.70
2016,08,13,00,38,17.60
2016,08,13,00,39,17.60
2016,08,13,00,40,17.60
2016,08,13,00,41,17.60
2016,08,13,00,42,17.60
2016,08,13,00,43,17.60
2016,08,13,00,44,17.60
2016,08,13,00,45,17.60
2016,08,13,00,46,17.50
2016,08,13,00,47,17.50
2016,08,13,00,48,17.50
2016,08,13,00,49,17.50
2016,08,13,00,50,17.50
2016,08,13,00,51,17.40
2016,08,13,00,52,17.40
2016,08,13,00,53,17.40
2016,08,13,00,54,17.40
2016,08,13,00,55,17.40
2016,08,13,00,56,17.40
2016,08,13,00,57,17.40
2016,08,13,00,58,17.40
2016,08,13,00,59,17.40
2016,08,13,01,00,17.40
2016,08,13,01,01,17.40
2016,08,13,01,02,17.40
2016,08,13,01,03,17.40
2016,08,13,01,04,17.40
2016,08,13,01,05,17.40
2016,08,13,01,06,17.40
2016,08,13,01,07,17.40
2016,08,13,01,08,17.40
2016,08,13,01,09,17.40
2016,08,13,01,10,17.40
2016,08,13,01,11,17.40
2016,08,13,01,12,17.40
2016,08,13,01,13,17.40
2016,08,13,01,14,17.30
2016,08,13,01,15,17.30
2016,08,13,01,16,17.40
2016,08,13,01,17,17.40
2016,08,13,01,18,17.40
2016,08,13,01,19,17.40
2016,08,13,01,20,17.40
2016,08,13,01,21,17.40
2016,08,13,01,22,17.40
2016,08,13,01,23,17.50
2016,08,13,01,24,17.50
2016,08,13,01,25,17.50
2016,08,13,01,26,17.50
2016,08,13,01,27,17.50
2016,08,13,01,28,17.50
2016,08,13,01,29,17.50
2016,08,13,01,30,17.50
2016,08,13,01,31,17.50
2016,08,13,01,32,17.50
2016,08,13,01,33,17.50
2016,08,13,01,34,17.50
2016,08,13,01,35,17.50
2016,08,13,01,36,17.40
2016,08,13,01,37,17.40
2016,08,13,01,38,17.40
2016,08,13,01,39,17.40
2016,08,13,01,40,17.40
2016,08,13,01,41,17.40
2016,08,13,01,42,17.40
2016,08,13,01,43,17.40
2016,08,13,01,44,17.40
2016,08,13,01,45,17.40
2016,08,13,01,46,17.40
2016,08,13,01,47,17.40
2016,08,13,01,48,17.40
2016,08,13,01,49,17.40
2016,08,13,01,50,17.40
2016,08,13,01,51,17.40
2016,08,13,01,52,17.40
2016,08,13,01,53,17.40
2016,08,13,01,54,17.40
2016,08,13,01,55,17.40
2016,08,13,01,56,17.40
2016,08,13,01,57,17.40
2016,08,13,01,58,17.40
2016,08,13,01,59,17.40
2016,08,13,02,00,17.40
2016,08,13,02,01,17.40
2016,08,13,02,02,17.40
2016,08,13,02,03,17.40
2016,08,13,02,04,17.40
2016,08,13,02,05,17.40
2016,08,13,02,06,17.40
2016,08,13,02,07,17.40
2016,08,13,02,08,17.40
2016,08,13,02,09,17.40
2016,08,13,02,10,17.40
2016,08,13,02,11,17.30
2016,08,13,02,12,17.30
2016,08,13,02,13,17.30
2016,08,13,02,14,17.30
2016,08,13,02,15,17.30
2016,08,13,02,16,17.30
2016,08,13,02,17,17.30
2016,08,13,02,18,17.30
2016,08,13,02,19,17.30
2016,08,13,02,20,17.30
2016,08,13,02,21,17.30
2016,08,13,02,22,17.30
2016,08,13,02,23,17.30
2016,08,13,02,24,17.30
2016,08,13,02,25,17.30
2016,08,13,02,26,17.30
2016,08,13,02,27,17.30
2016,08,13,02,28,17.30
2016,08,13,02,29,17.30
2016,08,13,02,30,17.30
2016,08,13,02,31,17.30
2016,08,13,02,32,17.30
2016,08,13,02,33,17.20
2016,08,13,02,34,17.20
2016,08,13,02,35,17.20
2016,08,13,02,36,17.20
2016,08,13,02,37,17.20
2016,08,13,02,38,17.20
2016,08,13,02,39,17.20
2016,08,13,02,40,17.20
2016,08,13,02,41,17.20
2016,08,13,02,42,17.20
2016,08,13,02,43,17.20
2016,08,13,02,44,17.20
2016,08,13,02,45,17.20
2016,08,13,02,46,17.20
2016,08,13,02,47,17.20
2016,08,13,02,48,17.20
2016,08,13,02,49,17.20
2016,08,13,02,50,17.20
2016,08,13,02,51,17.20
2016,08,13,02,52,17.20
2016,08,13,02,53,17.20
2016,08,13,02,54,17.20
2016,08,13,02,55,17.10
2016,08,13,02,56,17.10
2016,08,13,02,57,17.20
2016,08,13,02,58,17.20
2016,08,13,02,59,17.20
2016,08,13,03,00,17.20
2016,08,13,03,01,17.20
2016,08,13,03,02,17.20
2016,08,13,03,03,17.20
2016,08,13,03,04,17.20
2016,08,13,03,05,17.20
2016,08,13,03,06,17.20
2016,08,13,03,07,17.20
2016,08,13,03,08,17.20
2016,08,13,03,09,17.20
2016,08,13,03,10,17.10
2016,08,13,03,11,17.10
2016,08,13,03,12,17.10
2016,08,13,03,13,17.10
2016,08,13,03,14,17.10
2016,08,13,03,15,17.10
2016,08,13,03,16,17.10
2016,08,13,03,17,17.10
2016,08,13,03,18,17.10
2016,08,13,03,19,17.00
2016,08,13,03,20,17.00
2016,08,13,03,21,17.00
2016,08,13,03,22,17.00
2016,08,13,03,23,17.00
2016,08,13,03,24,16.90
2016,08,13,03,25,16.90
2016,08,13,03,26,16.90
2016,08,13,03,27,16.90
2016,08,13,03,28,16.90
2016,08,13,03,29,16.90
2016,08,13,03,30,16.90
2016,08,13,03,31,16.90
2016,08,13,03,32,16.80
2016,08,13,03,33,16.80
2016,08,13,03,34,16.80
2016,08,13,03,35,16.80
2016,08,13,03,36,16.80
2016,08,13,03,37,16.80
2016,08,13,03,38,16.80
2016,08,13,03,39,16.80
2016,08,13,03,40,16.80
2016,08,13,03,41,16.80
2016,08,13,03,42,16.70
2016,08,13,03,43,16.70
2016,08,13,03,44,16.70
2016,08,13,03,45,16.70
2016,08,13,03,46,16.70
2016,08,13,03,47,16.70
2016,08,13,03,48,16.70
2016,08,13,03,49,16.70
2016,08,13,03,50,16.70
2016,08,13,03,51,16.70
2016,08,13,03,52,16.60
2016,08,13,03,53,16.60
2016,08,13,03,54,16.60
2016,08,13,03,55,16.60
2016,08,13,03,56,16.60
2016,08,13,03,57,16.50
2016,08,13,03,58,16.50
2016,08,13,03,59,16.50
2016,08,13,04,00,16.50
2016,08,13,04,01,16.40
2016,08,13,04,02,16.40
2016,08,13,04,03,16.40
2016,08,13,04,04,16.40
2016,08,13,04,05,16.40
2016,08,13,04,06,16.40
2016,08,13,04,07,16.30
2016,08,13,04,08,16.30
2016,08,13,04,09,16.30
2016,08,13,04,10,16.30
2016,08,13,04,11,16.30
2016,08,13,04,12,16.30
2016,08,13,04,13,16.30
2016,08,13,04,14,16.20
2016,08,13,04,15,16.20
2016,08,13,04,16,16.20
2016,08,13,04,17,16.20
2016,08,13,04,18,16.20
2016,08,13,04,19,16.20
2016,08,13,04,20,16.10
2016,08,13,04,21,16.10
2016,08,13,04,22,16.10
2016,08,13,04,23,16.10
2016,08,13,04,24,16.10
2016,08,13,04,25,16.10
2016,08,13,04,26,16.10
2016,08,13,04,27,16.10
2016,08,13,04,28,16.00
2016,08,13,04,29,16.00
2016,08,13,04,30,16.00
2016,08,13,04,31,15.90
2016,08,13,04,32,15.90
2016,08,13,04,33,15.90
2016,08,13,04,34,15.90
2016,08,13,04,35,15.80
2016,08,13,04,36,15.80
2016,08,13,04,37,15.80
2016,08,13,04,38,15.80
2016,08,13,04,39,15.80
2016,08,13,04,40,15.80
2016,08,13,04,41,15.80
2016,08,13,04,42,15.80
2016,08,13,04,43,15.70
2016,08,13,04,44,15.70
2016,08,13,04,45,15.70
2016,08,13,04,46,15.70
2016,08,13,04,47,15.70
2016,08,13,04,48,15.70
2016,08,13,04,49,15.70
2016,08,13,04,50,15.70
2016,08,13,04,51,15.60
2016,08,13,04,52,15.60
2016,08,13,04,53,15.60
2016,08,13,04,54,15.60
2016,08,13,04,55,15.60
2016,08,13,04,56,15.50
2016,08,13,04,57,15.50
2016,08,13,04,58,15.50
2016,08,13,04,59,15.50
2016,08,13,05,00,15.50
2016,08,13,05,01,15.40
2016,08,13,05,02,15.40
2016,08,13,05,03,15.40
2016,08,13,05,04,15.40
2016,08,13,05,05,15.40
2016,08,13,05,06,15.40
2016,08,13,05,07,15.40
2016,08,13,05,08,15.40
2016,08,13,05,09,15.30
2016,08,13,05,10,15.30
2016,08,13,05,11,15.30
2016,08,13,05,12,15.30
2016,08,13,05,13,15.30
2016,08,13,05,14,15.30
2016,08,13,05,15,15.30
2016,08,13,05,16,15.30
2016,08,13,05,17,15.30
2016,08,13,05,18,15.20
2016,08,13,05,19,15.20
2016,08,13,05,20,15.20
2016,08,13,05,21,15.20
2016,08,13,05,22,15.20
2016,08,13,05,23,15.20
2016,08,13,05,24,15.20
2016,08,13,05,25,15.20
2016,08,13,05,26,15.20
2016,08,13,05,27,15.20
2016,08,13,05,28,15.20
2016,08,13,05,29,15.10
2016,08,13,05,30,15.10
2016,08,13,05,31,15.10
2016,08,13,05,32,15.10
2016,08,13,05,33,15.10
2016,08,13,05,34,15.10
2016,08,13,05,35,15.10
2016,08,13,05,36,15.10
2016,08,13,05,37,15.10
2016,08,13,05,38,15.10
2016,08,13,05,39,15.00
2016,08,13,05,40,15.00
2016,08,13,05,41,15.00
2016,08,13,05,42,15.00
2016,08,13,05,43,14.90
2016,08,13,05,44,14.90
2016,08,13,05,45,14.90
2016,08,13,05,46,14.90
2016,08,13,05,47,14.90
2016,08,13,05,48,14.90
2016,08,13,05,49,14.90
2016,08,13,05,50,14.90
2016,08,13,05,51,14.90
2016,08,13,05,52,14.90
2016,08,13,05,53,14.90
2016,08,13,05,54,14.90
2016,08,13,05,55,14.90
2016,08,13,05,56,14.90
2016,08,13,05,57,14.90
2016,08,13,05,58,14.90
2016,08,13,05,59,14.90
2016,08,13,06,00,14.90
2016,08,13,06,01,14.90
2016,08,13,06,02,14.90
2016,08,13,06,03,14.90
2016,08,13,06,04,14.90
2016,08,13,06,05,14.80
2016,08,13,06,06,14.80
2016,08,13,06,07,14.80
2016,08,13,06,08,14.80
2016,08,13,06,09,14.80
2016,08,13,06,10,14.80
2016,08,13,06,11,14.80
2016,08,13,06,12,14.80
2016,08,13,06,13,14.80
2016,08,13,06,14,14.80
2016,08,13,06,15,14.80
2016,08,13,06,16,14.80
2016,08,13,06,17,14.80
2016,08,13,06,18,14.80
2016,08,13,06,19,14.80
2016,08,13,06,20,14.80
2016,08,13,06,21,14.80
2016,08,13,06,22,14.80
2016,08,13,06,23,14.80
2016,08,13,06,24,14.80
2016,08,13,06,25,14.80
2016,08,13,06,26,14.80
2016,08,13,06,27,14.80
2016,08,13,06,28,14.80
2016,08,13,06,29,14.80
2016,08,13,06,30,14.70
2016,08,13,06,31,14.70
2016,08,13,06,32,14.70
2016,08,13,06,33,14.70
2016,08,13,06,34,14.70
2016,08,13,06,35,14.70
2016,08,13,06,36,14.70
2016,08,13,06,37,14.70
2016,08,13,06,38,14.70
2016,08,13,06,39,14.70
2016,08,13,06,40,14.70
2016,08,13,06,41,14.70
2016,08,13,06,42,14.70
2016,08,13,06,43,14.70
2016,08,13,06,44,14.70
2016,08,13,06,45,14.70
2016,08,13,06,46,14.70
2016,08,13,06,47,14.70
2016,08,13,06,48,14.70
2016,08,13,06,49,14.70
2016,08,13,06,50,14.70
2016,08,13,06,51,14.70
2016,08,13,06,52,14.70
2016,08,13,06,53,14.70
2016,08,13,06,54,14.70
2016,08,13,06,55,14.70
2016,08,13,06,56,14.70
2016,08,13,06,57,14.70
2016,08,13,06,58,14.70
2016,08,13,06,59,14.80
2016,08,13,07,00,14.80
2016,08,13,07,01,14.80
2016,08,13,07,02,14.80
2016,08,13,07,03,14.80
2016,08,13,07,04,14.80
2016,08,13,07,05,14.80
2016,08,13,07,06,14.80
2016,08,13,07,07,14.80
2016,08,13,07,08,14.80
2016,08,13,07,09,14.80
2016,08,13,07,10,14.80
2016,08,13,07,11,14.80
2016,08,13,07,12,14.90
2016,08,13,07,13,14.90
2016,08,13,07,14,14.90
2016,08,13,07,15,14.90
2016,08,13,07,16,15.00
2016,08,13,07,17,15.00
2016,08,13,07,18,15.10
2016,08,13,07,19,15.10
2016,08,13,07,20,15.20
2016,08,13,07,21,15.20
2016,08,13,07,22,15.20
2016,08,13,07,23,15.30
2016,08,13,07,24,15.30
2016,08,13,07,25,15.40
2016,08,13,07,26,15.40
2016,08,13,07,27,15.50
2016,08,13,07,28,15.50
2016,08,13,07,29,15.60
2016,08,13,07,30,15.60
2016,08,13,07,31,15.70
2016,08,13,07,32,15.70
2016,08,13,07,33,15.80
2016,08,13,07,34,15.80
2016,08,13,07,35,15.80
2016,08,13,07,36,15.80
2016,08,13,07,37,15.80
2016,08,13,07,38,15.90
2016,08,13,07,39,15.90
2016,08,13,07,40,16.00
2016,08,13,07,41,16.00
2016,08,13,07,42,16.00
2016,08,13,07,43,16.10
2016,08,13,07,44,16.10
2016,08,13,07,45,16.10
2016,08,13,07,46,16.20
2016,08,13,07,47,16.20
2016,08,13,07,48,16.20
2016,08,13,07,49,16.30
2016,08,13,07,50,16.30
2016,08,13,07,51,16.30
2016,08,13,07,52,16.40
2016,08,13,07,53,16.40
2016,08,13,07,54,16.40
2016,08,13,07,55,16.50
2016,08,13,07,56,16.50
2016,08,13,07,57,16.50
2016,08,13,07,58,16.60
2016,08,13,07,59,16.60
2016,08,13,08,00,16.70
2016,08,13,08,01,16.70
2016,08,13,08,02,16.70
2016,08,13,08,03,16.70
2016,08,13,08,04,16.80
2016,08,13,08,05,16.80
2016,08,13,08,06,16.80
2016,08,13,08,07,16.80
2016,08,13,08,08,16.90
2016,08,13,08,09,16.90
2016,08,13,08,10,17.00
2016,08,13,08,11,17.10
2016,08,13,08,12,17.10
2016,08,13,08,13,17.20
2016,08,13,08,14,17.30
2016,08,13,08,15,17.40
2016,08,13,08,16,17.50
2016,08,13,08,17,17.60
2016,08,13,08,18,17.60
2016,08,13,08,19,17.60
2016,08,13,08,20,17.70
2016,08,13,08,21,17.80
2016,08,13,08,22,17.80
2016,08,13,08,23,17.80
2016,08,13,08,24,17.80
2016,08,13,08,25,17.80
2016,08,13,08,26,17.80
2016,08,13,08,27,17.80
2016,08,13,08,28,17.80
2016,08,13,08,29,17.90
2016,08,13,08,30,17.90
2016,08,13,08,31,17.90
2016,08,13,08,32,17.90
2016,08,13,08,33,17.90
2016,08,13,08,34,18.00
2016,08,13,08,35,18.00
2016,08,13,08,36,18.00
2016,08,13,08,37,18.00
2016,08,13,08,38,18.10
2016,08,13,08,39,18.10
2016,08,13,08,40,18.10
2016,08,13,08,41,18.10
2016,08,13,08,42,18.10
2016,08,13,08,43,18.10
2016,08,13,08,44,18.10
2016,08,13,08,45,18.10
2016,08,13,08,46,18.10
2016,08,13,08,47,18.10
2016,08,13,08,48,18.10
2016,08,13,08,49,18.20
2016,08,13,08,50,18.20
2016,08,13,08,51,18.20
2016,08,13,08,52,18.20
2016,08,13,08,53,18.30
2016,08,13,08,54,18.30
2016,08,13,08,55,18.30
2016,08,13,08,56,18.30
2016,08,13,08,57,18.40
2016,08,13,08,58,18.40
2016,08,13,08,59,18.50
2016,08,13,09,00,18.60
2016,08,13,09,01,18.60
2016,08,13,09,02,18.60
2016,08,13,09,03,18.60
2016,08,13,09,04,18.60
2016,08,13,09,05,18.60
2016,08,13,09,06,18.60
2016,08,13,09,07,18.70
2016,08,13,09,08,18.70
2016,08,13,09,09,18.80
2016,08,13,09,10,18.80
2016,08,13,09,11,18.90
2016,08,13,09,12,18.90
2016,08,13,09,13,19.00
2016,08,13,09,14,19.10
2016,08,13,09,15,19.10
2016,08,13,09,16,19.20
2016,08,13,09,17,19.20
2016,08,13,09,18,19.20
2016,08,13,09,19,19.30
2016,08,13,09,20,19.30
2016,08,13,09,21,19.30
2016,08,13,09,22,19.30
2016,08,13,09,23,19.30
2016,08,13,09,24,19.30
2016,08,13,09,25,19.30
2016,08,13,09,26,19.30
2016,08,13,09,27,19.30
2016,08,13,09,28,19.20
2016,08,13,09,29,19.30
2016,08,13,09,30,19.30
2016,08,13,09,31,19.30
2016,08,13,09,32,19.30
2016,08,13,09,33,19.30
2016,08,13,09,34,19.30
2016,08,13,09,35,19.20
2016,08,13,09,36,19.20
2016,08,13,09,37,19.20
2016,08,13,09,38,19.20
2016,08,13,09,39,19.20
2016,08,13,09,40,19.20
2016,08,13,09,41,19.30
2016,08,13,09,42,19.30
2016,08,13,09,43,19.30
2016,08,13,09,44,19.30
2016,08,13,09,45,19.40
2016,08,13,09,46,19.40
2016,08,13,09,47,19.40
2016,08,13,09,48,19.40
2016,08,13,09,49,19.50
2016,08,13,09,50,19.50
2016,08,13,09,51,19.60
2016,08,13,09,52,19.50
2016,08,13,09,53,19.50
2016,08,13,09,54,19.50
2016,08,13,09,55,19.50
2016,08,13,09,56,19.60
2016,08,13,09,57,19.60
2016,08,13,09,58,19.60
2016,08,13,09,59,19.50
2016,08,13,10,00,19.50
2016,08,13,10,01,19.40
2016,08,13,10,02,19.40
2016,08,13,10,03,19.40
2016,08,13,10,04,19.40
2016,08,13,10,05,19.50
2016,08,13,10,06,19.50
2016,08,13,10,07,19.60
2016,08,13,10,08,19.60
2016,08,13,10,09,19.60
2016,08,13,10,10,19.60
2016,08,13,10,11,19.60
2016,08,13,10,12,19.50
2016,08,13,10,13,19.50
2016,08,13,10,14,19.50
2016,08,13,10,15,19.60
2016,08,13,10,16,19.60
2016,08,13,10,17,19.60
2016,08,13,10,18,19.60
2016,08,13,10,19,19.60
2016,08,13,10,20,19.60
2016,08,13,10,21,19.60
2016,08,13,10,22,19.60
2016,08,13,10,23,19.70
2016,08,13,10,24,19.70
2016,08,13,10,25,19.80
2016,08,13,10,26,19.90
2016,08,13,10,27,20.00
2016,08,13,10,28,20.10
2016,08,13,10,29,20.20
2016,08,13,10,30,20.20
2016,08,13,10,31,20.30
2016,08,13,10,32,20.30
2016,08,13,10,33,20.30
2016,08,13,10,34,20.30
2016,08,13,10,35,20.20
2016,08,13,10,36,20.10
2016,08,13,10,37,20.10
2016,08,13,10,38,20.00
2016,08,13,10,39,20.00
2016,08,13,10,40,20.00
2016,08,13,10,41,20.00
2016,08,13,10,42,20.00
2016,08,13,10,43,20.00
2016,08,13,10,44,20.10
2016,08,13,10,45,20.10
2016,08,13,10,46,20.20
2016,08,13,10,47,20.30
2016,08,13,10,48,20.30
2016,08,13,10,49,20.30
2016,08,13,10,50,20.20
2016,08,13,10,51,20.20
2016,08,13,10,52,20.20
2016,08,13,10,53,20.10
2016,08,13,10,54,20.10
2016,08,13,10,55,20.10
2016,08,13,10,56,20.10
2016,08,13,10,57,20.20
2016,08,13,10,58,20.30
2016,08,13,10,59,20.30
2016,08,13,11,00,20.30
2016,08,13,11,01,20.40
2016,08,13,11,02,20.50
2016,08,13,11,03,20.50
2016,08,13,11,04,20.50
2016,08,13,11,05,20.40
2016,08,13,11,06,20.30
2016,08,13,11,07,20.30
2016,08,13,11,08,20.20
2016,08,13,11,09,20.20
2016,08,13,11,10,20.10
2016,08,13,11,11,20.20
2016,08,13,11,12,20.20
2016,08,13,11,13,20.20
2016,08,13,11,14,20.20
2016,08,13,11,15,20.30
2016,08,13,11,16,20.30
2016,08,13,11,17,20.30
2016,08,13,11,18,20.20
2016,08,13,11,19,20.20
2016,08,13,11,20,20.30
2016,08,13,11,21,20.30
2016,08,13,11,22,20.40
2016,08,13,11,23,20.40
2016,08,13,11,24,20.50
2016,08,13,11,25,20.50
2016,08,13,11,26,20.60
2016,08,13,11,27,20.70
2016,08,13,11,28,20.70
2016,08,13,11,29,20.70
2016,08,13,11,30,20.70
2016,08,13,11,31,20.60
2016,08,13,11,32,20.60
2016,08,13,11,33,20.50
2016,08,13,11,34,20.50
2016,08,13,11,35,20.40
2016,08,13,11,36,20.40
2016,08,13,11,37,20.50
2016,08,13,11,38,20.40
2016,08,13,11,39,20.40
2016,08,13,11,40,20.50
2016,08,13,11,41,20.50
2016,08,13,11,42,20.60
2016,08,13,11,43,20.60
2016,08,13,11,44,20.70
2016,08,13,11,45,20.70
2016,08,13,11,46,20.70
2016,08,13,11,47,20.80
2016,08,13,11,48,20.90
2016,08,13,11,49,20.90
2016,08,13,11,50,21.00
2016,08,13,11,51,21.00
2016,08,13,11,52,21.00
2016,08,13,11,53,21.00
2016,08,13,11,54,21.00
2016,08,13,11,55,21.10
2016,08,13,11,56,21.10
2016,08,13,11,57,21.10
2016,08,13,11,58,21.10
2016,08,13,11,59,21.10
2016,08,13,12,00,21.20
2016,08,13,12,01,21.20
2016,08,13,12,02,21.20
2016,08,13,12,03,21.20
2016,08,13,12,04,21.30
2016,08,13,12,05,21.30
2016,08,13,12,06,21.30
2016,08,13,12,07,21.30
2016,08,13,12,08,21.30
2016,08,13,12,09,21.30
2016,08,13,12,10,21.30
2016,08,13,12,11,21.30
2016,08,13,12,12,21.30
2016,08,13,12,13,21.30
2016,08,13,12,14,21.30
2016,08,13,12,15,21.30
2016,08,13,12,16,21.40
2016,08,13,12,17,21.40
2016,08,13,12,18,21.40
2016,08,13,12,19,21.50
2016,08,13,12,20,21.50
2016,08,13,12,21,21.50
2016,08,13,12,22,21.50
2016,08,13,12,23,21.50
2016,08,13,12,24,21.40
2016,08,13,12,25,21.40
2016,08,13,12,26,21.40
2016,08,13,12,27,21.40
2016,08,13,12,28,21.40
2016,08,13,12,29,21.40
2016,08,13,12,30,21.40
2016,08,13,12,31,21.40
2016,08,13,12,32,21.30
2016,08,13,12,33,21.30
2016,08,13,12,34,21.30
2016,08,13,12,35,21.20
2016,08,13,12,36,21.20
2016,08,13,12,37,21.20
2016,08,13,12,38,21.20
2016,08,13,12,39,21.20
2016,08,13,12,40,21.20
2016,08,13,12,41,21.10
2016,08,13,12,42,21.10
2016,08,13,12,43,21.10
2016,08,13,12,44,21.20
2016,08,13,12,45,21.20
2016,08,13,12,46,21.20
2016,08,13,12,47,21.30
2016,08,13,12,48,21.40
2016,08,13,12,49,21.50
2016,08,13,12,50,21.60
2016,08,13,12,51,21.60
2016,08,13,12,52,21.70
2016,08,13,12,53,21.60
2016,08,13,12,54,21.60
2016,08,13,12,55,21.60
2016,08,13,12,56,21.70
2016,08,13,12,57,21.70
2016,08,13,12,58,21.80
2016,08,13,12,59,21.80
2016,08,13,13,00,21.80
2016,08,13,13,01,21.80
2016,08,13,13,02,21.80
2016,08,13,13,03,21.80
2016,08,13,13,04,21.80
2016,08,13,13,05,21.80
2016,08,13,13,06,21.80
2016,08,13,13,07,21.80
2016,08,13,13,08,21.80
2016,08,13,13,09,21.80
2016,08,13,13,10,21.80
2016,08,13,13,11,21.80
2016,08,13,13,12,21.90
2016,08,13,13,13,22.00
2016,08,13,13,14,22.00
2016,08,13,13,15,22.10
2016,08,13,13,16,22.10
2016,08,13,13,17,22.10
2016,08,13,13,18,22.10
2016,08,13,13,19,22.10
2016,08,13,13,20,22.10
2016,08,13,13,21,22.10
2016,08,13,13,22,22.20
2016,08,13,13,23,22.20
2016,08,13,13,24,22.20
2016,08,13,13,25,22.20
2016,08,13,13,26,22.20
2016,08,13,13,27,22.30
2016,08,13,13,28,22.30
2016,08,13,13,29,22.40
2016,08,13,13,30,22.40
2016,08,13,13,31,22.40
2016,08,13,13,32,22.50
2016,08,13,13,33,22.50
2016,08,13,13,34,22.60
2016,08,13,13,35,22.60
2016,08,13,13,36,22.70
2016,08,13,13,37,22.70
2016,08,13,13,38,22.70
2016,08,13,13,39,22.70
2016,08,13,13,40,22.60
2016,08,13,13,41,22.50
2016,08,13,13,42,22.40
2016,08,13,13,43,22.40
2016,08,13,13,44,22.40
2016,08,13,13,45,22.30
2016,08,13,13,46,22.30
2016,08,13,13,47,22.20
2016,08,13,13,48,22.30
2016,08,13,13,49,22.30
2016,08,13,13,50,22.30
2016,08,13,13,51,22.30
2016,08,13,13,52,22.40
2016,08,13,13,53,22.50
2016,08,13,13,54,22.60
2016,08,13,13,55,22.70
2016,08,13,13,56,22.80
2016,08,13,13,57,23.00
2016,08,13,13,58,23.10
2016,08,13,13,59,23.30
2016,08,13,14,00,23.30
2016,08,13,14,01,23.40
2016,08,13,14,02,23.50
2016,08,13,14,03,23.60
2016,08,13,14,04,23.70
2016,08,13,14,05,23.80
2016,08,13,14,06,23.80
2016,08,13,14,07,23.90
2016,08,13,14,08,24.00
2016,08,13,14,09,24.00
2016,08,13,14,10,24.10
2016,08,13,14,11,24.10
2016,08,13,14,12,24.20
2016,08,13,14,13,24.20
2016,08,13,14,14,24.20
2016,08,13,14,15,24.20
2016,08,13,14,16,24.20
2016,08,13,14,17,24.20
2016,08,13,14,18,24.20
2016,08,13,14,19,24.20
2016,08,13,14,20,24.20
2016,08,13,14,21,24.20
2016,08,13,14,22,24.20
2016,08,13,14,23,24.30
2016,08,13,14,24,24.30
2016,08,13,14,25,24.30
2016,08,13,14,26,24.30
2016,08,13,14,27,24.30
2016,08,13,14,28,24.30
2016,08,13,14,29,24.30
2016,08,13,14,30,24.20
2016,08,13,14,31,24.20
2016,08,13,14,32,24.20
2016,08,13,14,33,24.20
2016,08,13,14,34,24.20
2016,08,13,14,35,24.20
2016,08,13,14,36,24.30
2016,08,13,14,37,24.30
2016,08,13,14,38,24.40
2016,08,13,14,39,24.40
2016,08,13,14,40,24.40
2016,08,13,14,41,24.50
2016,08,13,14,42,24.60
2016,08,13,14,43,24.70
2016,08,13,14,44,24.70
2016,08,13,14,45,24.70
2016,08,13,14,46,24.80
2016,08,13,14,47,24.80
2016,08,13,14,48,24.80
2016,08,13,14,49,24.70
2016,08,13,14,50,24.70
2016,08,13,14,51,24.70
2016,08,13,14,52,24.70
2016,08,13,14,53,24.70
2016,08,13,14,54,24.70
2016,08,13,14,55,24.70
2016,08,13,14,56,24.70
2016,08,13,14,57,24.70
2016,08,13,14,58,24.70
2016,08,13,14,59,24.70
2016,08,13,15,00,24.60
2016,08,13,15,01,24.60
2016,08,13,15,02,24.60
2016,08,13,15,03,24.60
2016,08,13,15,04,24.60
2016,08,13,15,05,24.60
2016,08,13,15,06,24.60
2016,08,13,15,07,24.60
2016,08,13,15,08,24.60
2016,08,13,15,09,24.60
2016,08,13,15,10,24.70
2016,08,13,15,11,24.80
2016,08,13,15,12,24.90
2016,08,13,15,13,24.90
2016,08,13,15,14,24.90
2016,08,13,15,15,24.90
2016,08,13,15,16,25.00
2016,08,13,15,17,25.00
2016,08,13,15,18,25.10
2016,08,13,15,19,25.20
2016,08,13,15,20,25.30
2016,08,13,15,21,25.50
2016,08,13,15,22,25.60
2016,08,13,15,23,25.70
2016,08,13,15,24,25.70
2016,08,13,15,25,25.70
2016,08,13,15,26,25.70
2016,08,13,15,27,25.60
2016,08,13,15,28,25.50
2016,08,13,15,29,25.40
2016,08,13,15,30,25.40
2016,08,13,15,31,25.40
2016,08,13,15,32,25.40
2016,08,13,15,33,25.50
2016,08,13,15,34,25.50
2016,08,13,15,35,25.60
2016,08,13,15,36,25.60
2016,08,13,15,37,25.60
2016,08,13,15,38,25.50
2016,08,13,15,39,25.50
2016,08,13,15,40,25.40
2016,08,13,15,41,25.40
2016,08,13,15,42,25.30
2016,08,13,15,43,25.30
2016,08,13,15,44,25.20
2016,08,13,15,45,25.20
2016,08,13,15,46,25.20
2016,08,13,15,47,25.20
2016,08,13,15,48,25.20
2016,08,13,15,49,25.20
2016,08,13,15,50,25.20
2016,08,13,15,51,25.20
2016,08,13,15,52,25.20
2016,08,13,15,53,25.20
2016,08,13,15,54,25.30
2016,08,13,15,55,25.30
2016,08,13,15,56,25.30
2016,08,13,15,57,25.30
2016,08,13,15,58,25.30
2016,08,13,15,59,25.40
2016,08,13,16,00,25.50
2016,08,13,16,01,25.50
2016,08,13,16,02,25.60
2016,08,13,16,03,25.60
2016,08,13,16,04,25.60
2016,08,13,16,05,25.50
2016,08,13,16,06,25.50
2016,08,13,16,07,25.40
2016,08,13,16,08,25.40
2016,08,13,16,09,25.40
2016,08,13,16,10,25.40
2016,08,13,16,11,25.50
2016,08,13,16,12,25.60
2016,08,13,16,13,25.70
2016,08,13,16,14,25.70
2016,08,13,16,15,25.80
2016,08,13,16,16,25.90
2016,08,13,16,17,26.00
2016,08,13,16,18,26.00
2016,08,13,16,19,26.10
2016,08,13,16,20,26.20
2016,08,13,16,21,26.20
2016,08,13,16,22,26.10
2016,08,13,16,23,26.10
2016,08,13,16,24,26.10
2016,08,13,16,25,26.10
2016,08,13,16,26,26.10
2016,08,13,16,27,26.10
2016,08,13,16,28,26.10
2016,08,13,16,29,26.10
2016,08,13,16,30,26.20
2016,08,13,16,31,26.20
2016,08,13,16,32,26.30
2016,08,13,16,33,26.30
2016,08,13,16,34,26.30
2016,08,13,16,35,26.40
2016,08,13,16,36,26.50
2016,08,13,16,37,26.50
2016,08,13,16,38,26.60
2016,08,13,16,39,26.60
2016,08,13,16,40,26.50
2016,08,13,16,41,26.50
2016,08,13,16,42,26.40
2016,08,13,16,43,26.30
2016,08,13,16,44,26.30
2016,08,13,16,45,26.20
2016,08,13,16,46,26.20
2016,08,13,16,47,26.20
2016,08,13,16,48,26.20
2016,08,13,16,49,26.20
2016,08,13,16,50,26.20
2016,08,13,16,51,26.20
2016,08,13,16,52,26.20
2016,08,13,16,53,26.20
2016,08,13,16,54,26.20
2016,08,13,16,55,26.30
2016,08,13,16,56,26.30
2016,08,13,16,57,26.40
2016,08,13,16,58,26.40
2016,08,13,16,59,26.40
2016,08,13,17,00,26.30
2016,08,13,17,01,26.30
2016,08,13,17,02,26.40
2016,08,13,17,03,26.30
2016,08,13,17,04,26.30
2016,08,13,17,05,26.20
2016,08,13,17,06,26.20
2016,08,13,17,07,26.20
2016,08,13,17,08,26.20
2016,08,13,17,09,26.10
2016,08,13,17,10,26.00
2016,08,13,17,11,26.00
2016,08,13,17,12,26.10
2016,08,13,17,13,26.10
2016,08,13,17,14,26.10
2016,08,13,17,15,26.20
2016,08,13,17,16,26.20
2016,08,13,17,17,26.20
2016,08,13,17,18,26.20
2016,08,13,17,19,26.30